Wetterdaten: Mittwoch, 03.02.2010
Datum Zeit Temp. A. Feuchte A. Luftdruck Regen Wind Richtung Richtung Sonnenschein UV Solar Windben
03.02.2010 00:00 1,1 C 90 % 997,5 hPa 0,0 mm 0,0 km/h (0 Bft) NW 315 0 min 0 UV-I 0 W/m 4,8 km/h (1 Bft)
03.02.2010 00:10 1,0 C 90 % 997,6 hPa 0,0 mm 0,0 km/h (0 Bft) NW 315 0 min 0 UV-I 0 W/m 1,6 km/h (1 Bft)
03.02.2010 00:20 0,9 C 90 % 997,5 hPa 0,0 mm 0,0 km/h (0 Bft) NW 315 0 min 0 UV-I 0 W/m 3,2 km/h (1 Bft)
03.02.2010 00:30 0,8 C 90 % 997,4 hPa 0,0 mm 0,0 km/h (0 Bft) NW 315 0 min 0 UV-I 0 W/m 3,2 km/h (1 Bft)
03.02.2010 00:40 0,7 C 90 % 998,0 hPa 0,0 mm 1,6 km/h (1 Bft) W-NW 292 0 min 0 UV-I 0 W/m 6,4 km/h (2 Bft)
03.02.2010 00:50 0,7 C 90 % 998,1 hPa 0,0 mm 1,6 km/h (1 Bft) W-SW 247 0 min 0 UV-I 0 W/m 8,0 km/h (2 Bft)
03.02.2010 01:00 0,7 C 91 % 998,2 hPa 0,3 mm 1,6 km/h (1 Bft) W-SW 247 0 min 0 UV-I 0 W/m 6,4 km/h (2 Bft)
03.02.2010 01:10 0,6 C 91 % 998,4 hPa 0,0 mm 1,6 km/h (1 Bft) W 270 0 min 0 UV-I 0 W/m 6,4 km/h (2 Bft)
03.02.2010 01:20 0,6 C 91 % 998,4 hPa 0,3 mm 1,6 km/h (1 Bft) W-NW 292 0 min 0 UV-I 0 W/m 6,4 km/h (2 Bft)
03.02.2010 01:30 0,6 C 91 % 998,6 hPa 0,0 mm 3,2 km/h (1 Bft) W 270 0 min 0 UV-I 0 W/m 8,0 km/h (2 Bft)
03.02.2010 01:40 0,6 C 91 % 998,7 hPa 0,3 mm 1,6 km/h (1 Bft) W 270 0 min 0 UV-I 0 W/m 8,0 km/h (2 Bft)
03.02.2010 01:50 0,6 C 91 % 999,1 hPa 0,0 mm 1,6 km/h (1 Bft) W 270 0 min 0 UV-I 0 W/m 8,0 km/h (2 Bft)
03.02.2010 02:00 0,6 C 91 % 999,3 hPa 0,3 mm 1,6 km/h (1 Bft) W 270 0 min 0 UV-I 0 W/m 8,0 km/h (2 Bft)
03.02.2010 02:10 0,6 C 91 % 999,5 hPa 0,0 mm 3,2 km/h (1 Bft) W 270 0 min 0 UV-I 0 W/m 9,7 km/h (2 Bft)
03.02.2010 02:20 0,6 C 91 % 999,6 hPa 0,0 mm 3,2 km/h (1 Bft) W-SW 247 0 min 0 UV-I 0 W/m 9,7 km/h (2 Bft)
03.02.2010 02:30 0,5 C 91 % 999,7 hPa 0,0 mm 1,6 km/h (1 Bft) W-SW 247 0 min 0 UV-I 0 W/m 6,4 km/h (2 Bft)
03.02.2010 02:40 0,5 C 91 % 999,8 hPa 0,0 mm 1,6 km/h (1 Bft) W 270 0 min 0 UV-I 0 W/m 6,4 km/h (2 Bft)
03.02.2010 02:50 0,5 C 91 % 1000,0 hPa 0,0 mm 1,6 km/h (1 Bft) W 270 0 min 0 UV-I 0 W/m 6,4 km/h (2 Bft)
03.02.2010 03:00 0,5 C 91 % 1000,2 hPa 0,3 mm 3,2 km/h (1 Bft) W 270 0 min 0 UV-I 0 W/m 6,4 km/h (2 Bft)
03.02.2010 03:10 0,5 C 92 % 1000,3 hPa 0,0 mm 1,6 km/h (1 Bft) W 270 0 min 0 UV-I 0 W/m 3,2 km/h (1 Bft)
03.02.2010 03:20 0,5 C 92 % 1000,5 hPa 0,0 mm 3,2 km/h (1 Bft) W 270 0 min 0 UV-I 0 W/m 8,0 km/h (2 Bft)
03.02.2010 03:30 0,5 C 92 % 1000,6 hPa 0,0 mm 3,2 km/h (1 Bft) W-NW 292 0 min 0 UV-I 0 W/m 8,0 km/h (2 Bft)
03.02.2010 03:40 0,5 C 92 % 1000,7 hPa 0,0 mm 1,6 km/h (1 Bft) W 270 0 min 0 UV-I 0 W/m 8,0 km/h (2 Bft)
03.02.2010 03:50 0,5 C 92 % 1000,7 hPa 0,3 mm 1,6 km/h (1 Bft) W-NW 292 0 min 0 UV-I 0 W/m 8,0 km/h (2 Bft)
03.02.2010 04:00 0,5 C 92 % 1000,8 hPa 0,0 mm 1,6 km/h (1 Bft) W 270 0 min 0 UV-I 0 W/m 6,4 km/h (2 Bft)
03.02.2010 04:10 0,5 C 92 % 1000,9 hPa 0,0 mm 0,0 km/h (0 Bft) W 270 0 min 0 UV-I 0 W/m 4,8 km/h (1 Bft)
03.02.2010 04:20 0,5 C 92 % 1000,9 hPa 0,0 mm 0,0 km/h (0 Bft) SW 225 0 min 0 UV-I 0 W/m 4,8 km/h (1 Bft)
03.02.2010 04:30 0,5 C 92 % 1001,2 hPa 0,0 mm 0,0 km/h (0 Bft) W-SW 247 0 min 0 UV-I 0 W/m 6,4 km/h (2 Bft)
03.02.2010 04:40 0,5 C 92 % 1001,3 hPa 0,0 mm 0,0 km/h (0 Bft) W-SW 247 0 min 0 UV-I 0 W/m 4,8 km/h (1 Bft)
03.02.2010 04:50 0,4 C 92 % 1001,6 hPa 0,0 mm 0,0 km/h (0 Bft) W-SW 247 0 min 0 UV-I 0 W/m 6,4 km/h (2 Bft)
03.02.2010 05:00 0,4 C 92 % 1001,7 hPa 0,3 mm 0,0 km/h (0 Bft) W 270 0 min 0 UV-I 0 W/m 6,4 km/h (2 Bft)
03.02.2010 05:10 0,4 C 92 % 1001,8 hPa 0,0 mm 0,0 km/h (0 Bft) W-SW 247 0 min 0 UV-I 0 W/m 4,8 km/h (1 Bft)
03.02.2010 05:20 0,4 C 92 % 1002,0 hPa 0,0 mm 0,0 km/h (0 Bft) W 270 0 min 0 UV-I 0 W/m 6,4 km/h (2 Bft)
03.02.2010 05:30 0,4 C 92 % 1002,1 hPa 0,0 mm 1,6 km/h (1 Bft) W-SW 247 0 min 0 UV-I 0 W/m 9,7 km/h (2 Bft)
03.02.2010 05:40 0,4 C 92 % 1002,3 hPa 0,0 mm 0,0 km/h (0 Bft) W-SW 247 0 min 0 UV-I 0 W/m 8,0 km/h (2 Bft)
03.02.2010 05:50 0,4 C 92 % 1002,5 hPa 0,0 mm 0,0 km/h (0 Bft) W 270 0 min 0 UV-I 0 W/m 4,8 km/h (1 Bft)
03.02.2010 06:00 0,4 C 92 % 1002,6 hPa 0,0 mm 1,6 km/h (1 Bft) W-SW 247 0 min 0 UV-I 0 W/m 11,3 km/h (2 Bft)
03.02.2010 06:10 0,4 C 92 % 1002,7 hPa 0,0 mm 1,6 km/h (1 Bft) W-SW 247 0 min 0 UV-I 0 W/m 9,7 km/h (2 Bft)
03.02.2010 06:20 0,4 C 92 % 1002,7 hPa 0,0 mm 1,6 km/h (1 Bft) W-SW 247 0 min 0 UV-I 0 W/m 11,3 km/h (2 Bft)
03.02.2010 06:30 0,4 C 92 % 1002,7 hPa 0,0 mm 4,8 km/h (1 Bft) W-SW 247 0 min 0 UV-I 0 W/m 11,3 km/h (2 Bft)
03.02.2010 06:40 0,4 C 92 % 1002,8 hPa 0,0 mm 1,6 km/h (1 Bft) W-SW 247 0 min 0 UV-I 0 W/m 11,3 km/h (2 Bft)
03.02.2010 06:50 0,4 C 92 % 1002,9 hPa 0,0 mm 1,6 km/h (1 Bft) W-SW 247 0 min 0 UV-I 0 W/m 8,0 km/h (2 Bft)
03.02.2010 07:00 0,4 C 92 % 1003,2 hPa 0,0 mm 1,6 km/h (1 Bft) W-SW 247 0 min 0 UV-I 0 W/m 11,3 km/h (2 Bft)
03.02.2010 07:10 0,4 C 92 % 1003,4 hPa 0,0 mm 3,2 km/h (1 Bft) W-SW 247 0 min 0 UV-I 0 W/m 14,5 km/h (3 Bft)
03.02.2010 07:20 0,5 C 92 % 1003,4 hPa 0,0 mm 8,0 km/h (2 Bft) W-SW 247 0 min 0 UV-I 0 W/m 19,3 km/h (3 Bft)
03.02.2010 07:30 0,5 C 92 % 1003,5 hPa 0,0 mm 6,4 km/h (2 Bft) W-SW 247 0 min 0 UV-I 0 W/m 24,1 km/h (4 Bft)
03.02.2010 07:40 0,5 C 92 % 1003,6 hPa 0,0 mm 6,4 km/h (2 Bft) W-SW 247 0 min 0 UV-I 0 W/m 17,7 km/h (3 Bft)
03.02.2010 07:50 0,5 C 93 % 1003,8 hPa 0,0 mm 8,0 km/h (2 Bft) W-SW 247 0 min 0 UV-I 0 W/m 19,3 km/h (3 Bft)
03.02.2010 08:00 0,6 C 93 % 1004,0 hPa 0,0 mm 7,5 km/h (2 Bft) W-SW 252 0 min 0 UV-I 0 W/m 14,5 km/h (3 Bft)
03.02.2010 08:10 0,6 C 93 % 1004,1 hPa 0,0 mm 6,4 km/h (2 Bft) W-SW 247 0 min 0 UV-I 0 W/m 17,7 km/h (3 Bft)
03.02.2010 08:20 0,6 C 93 % 1004,4 hPa 0,0 mm 8,0 km/h (2 Bft) W-SW 247 0 min 0 UV-I 0 W/m 19,3 km/h (3 Bft)
03.02.2010 08:30 0,6 C 93 % 1004,7 hPa 0,0 mm 6,4 km/h (2 Bft) W-SW 247 0 min 0 UV-I 0 W/m 16,1 km/h (3 Bft)
03.02.2010 08:40 0,7 C 93 % 1004,9 hPa 0,0 mm 6,4 km/h (2 Bft) W-SW 247 0 min 0 UV-I 0 W/m 17,7 km/h (3 Bft)
03.02.2010 08:50 0,7 C 93 % 1005,0 hPa 0,3 mm 4,8 km/h (1 Bft) W 270 0 min 0 UV-I 5 W/m 16,1 km/h (3 Bft)
03.02.2010 09:00 0,7 C 93 % 1005,1 hPa 0,0 mm 4,8 km/h (1 Bft) W 270 0 min 0 UV-I 14 W/m 16,1 km/h (3 Bft)
03.02.2010 09:10 0,8 C 93 % 1005,1 hPa 0,0 mm 3,2 km/h (1 Bft) W-SW 247 0 min 0 UV-I 16 W/m 16,1 km/h (3 Bft)
03.02.2010 09:20 0,8 C 93 % 1005,1 hPa 0,0 mm 6,4 km/h (2 Bft) W 270 0 min 0 UV-I 21 W/m 17,7 km/h (3 Bft)
03.02.2010 09:30 0,8 C 93 % 1005,3 hPa 0,0 mm 4,8 km/h (1 Bft) W-SW 247 0 min 0 UV-I 32 W/m 14,5 km/h (3 Bft)
03.02.2010 09:40 0,9 C 93 % 1005,5 hPa 0,3 mm 4,8 km/h (1 Bft) W-SW 247 0 min 0 UV-I 32 W/m 16,1 km/h (3 Bft)
03.02.2010 09:50 0,9 C 93 % 1005,5 hPa 0,0 mm 4,8 km/h (1 Bft) W-SW 247 0 min 0 UV-I 30 W/m 14,5 km/h (3 Bft)
03.02.2010 10:00 1,0 C 93 % 1005,7 hPa 0,0 mm 6,4 km/h (2 Bft) W-SW 247 0 min 0 UV-I 44 W/m 16,1 km/h (3 Bft)
03.02.2010 10:10 1,1 C 93 % 1005,7 hPa 0,3 mm 4,8 km/h (1 Bft) W 270 0 min 0 UV-I 62 W/m 16,1 km/h (3 Bft)
03.02.2010 10:20 1,2 C 93 % 1005,8 hPa 0,0 mm 6,4 km/h (2 Bft) W 270 0 min 0 UV-I 74 W/m 19,3 km/h (3 Bft)
03.02.2010 10:30 1,2 C 93 % 1006,1 hPa 0,0 mm 6,4 km/h (2 Bft) W-SW 247 0 min 0 UV-I 51 W/m 17,7 km/h (3 Bft)
03.02.2010 10:40 1,3 C 93 % 1006,1 hPa 0,0 mm 8,0 km/h (2 Bft) W-SW 247 0 min 0 UV-I 62 W/m 20,9 km/h (4 Bft)
03.02.2010 10:50 1,3 C 93 % 1006,3 hPa 0,3 mm 6,4 km/h (2 Bft) W-SW 247 0 min 1 UV-I 81 W/m 17,7 km/h (3 Bft)
03.02.2010 11:00 1,3 C 93 % 1006,5 hPa 0,0 mm 6,4 km/h (2 Bft) W-SW 247 0 min 1 UV-I 141 W/m 19,3 km/h (3 Bft)
03.02.2010 11:10 1,3 C 93 % 1006,7 hPa 0,0 mm 4,8 km/h (1 Bft) W-SW 247 0 min 1 UV-I 139 W/m 16,1 km/h (3 Bft)
03.02.2010 11:20 1,4 C 93 % 1006,8 hPa 0,0 mm 6,4 km/h (2 Bft) W-SW 247 0 min 1 UV-I 121 W/m 19,3 km/h (3 Bft)
03.02.2010 11:30 1,6 C 93 % 1006,9 hPa 0,3 mm 6,4 km/h (2 Bft) W-SW 247 0 min 1 UV-I 88 W/m 16,1 km/h (3 Bft)
03.02.2010 11:40 1,6 C 92 % 1007,0 hPa 0,0 mm 6,4 km/h (2 Bft) W-SW 247 0 min 1 UV-I 77 W/m 17,7 km/h (3 Bft)
03.02.2010 11:50 1,5 C 92 % 1007,0 hPa 0,0 mm 4,8 km/h (1 Bft) W-SW 247 0 min 1 UV-I 86 W/m 16,1 km/h (3 Bft)
03.02.2010 12:00 1,6 C 92 % 1007,0 hPa 0,0 mm 4,8 km/h (1 Bft) W-SW 247 0 min 1 UV-I 160 W/m 16,1 km/h (3 Bft)
03.02.2010 12:10 1,7 C 92 % 1007,1 hPa 0,0 mm 4,8 km/h (1 Bft) SW 225 0 min 1 UV-I 104 W/m 20,9 km/h (4 Bft)
03.02.2010 12:20 1,7 C 92 % 1007,2 hPa 0,0 mm 6,4 km/h (2 Bft) W-SW 247 0 min 1 UV-I 153 W/m 17,7 km/h (3 Bft)
03.02.2010 12:30 1,8 C 92 % 1007,2 hPa 0,0 mm 6,4 km/h (2 Bft) W-SW 247 0 min 1 UV-I 146 W/m 19,3 km/h (3 Bft)
03.02.2010 12:40 1,9 C 92 % 1007,4 hPa 0,3 mm 4,8 km/h (1 Bft) W-SW 247 0 min 1 UV-I 139 W/m 22,5 km/h (4 Bft)
03.02.2010 12:50 1,9 C 92 % 1007,6 hPa 0,0 mm 8,0 km/h (2 Bft) W-SW 247 0 min 1 UV-I 160 W/m 17,7 km/h (3 Bft)
03.02.2010 13:00 2,0 C 92 % 1007,7 hPa 0,0 mm 8,0 km/h (2 Bft) W-SW 247 0 min 1 UV-I 169 W/m 20,9 km/h (4 Bft)
03.02.2010 13:10 2,1 C 91 % 1007,8 hPa 0,0 mm 6,4 km/h (2 Bft) W-SW 247 10 min 1 UV-I 241 W/m 17,7 km/h (3 Bft)
03.02.2010 13:20 2,2 C 90 % 1007,8 hPa 0,0 mm 6,4 km/h (2 Bft) W-SW 247 0 min 1 UV-I 179 W/m 22,5 km/h (4 Bft)
03.02.2010 13:30 2,3 C 89 % 1007,8 hPa 0,0 mm 4,8 km/h (1 Bft) W-SW 247 10 min 1 UV-I 316 W/m 17,7 km/h (3 Bft)
03.02.2010 13:40 2,6 C 87 % 1007,9 hPa 0,0 mm 6,4 km/h (2 Bft) W-SW 247 10 min 1 UV-I 353 W/m 19,3 km/h (3 Bft)
03.02.2010 13:50 2,6 C 87 % 1008,0 hPa 0,0 mm 6,4 km/h (2 Bft) W-SW 247 0 min 1 UV-I 116 W/m 16,1 km/h (3 Bft)
03.02.2010 14:00 2,5 C 87 % 1008,0 hPa 0,0 mm 6,4 km/h (2 Bft) W-SW 247 0 min 1 UV-I 155 W/m 16,1 km/h (3 Bft)
03.02.2010 14:10 2,5 C 86 % 1008,1 hPa 0,0 mm 6,4 km/h (2 Bft) W-SW 247 0 min 1 UV-I 149 W/m 19,3 km/h (3 Bft)
03.02.2010 14:20 2,6 C 85 % 1008,3 hPa 0,0 mm 8,0 km/h (2 Bft) W-SW 247 10 min 1 UV-I 186 W/m 22,5 km/h (4 Bft)
03.02.2010 14:30 2,6 C 84 % 1008,5 hPa 0,0 mm 11,3 km/h (2 Bft) W-SW 247 10 min 1 UV-I 185 W/m 27,4 km/h (4 Bft)
03.02.2010 14:40 2,6 C 83 % 1008,6 hPa 0,0 mm 8,0 km/h (2 Bft) W-SW 247 0 min 1 UV-I 144 W/m 22,5 km/h (4 Bft)
03.02.2010 14:50 2,6 C 82 % 1008,7 hPa 0,0 mm 8,0 km/h (2 Bft) W 270 0 min 1 UV-I 148 W/m 20,9 km/h (4 Bft)
03.02.2010 15:00 2,6 C 81 % 1008,7 hPa 0,0 mm 8,0 km/h (2 Bft) W-SW 247 0 min 1 UV-I 127 W/m 22,5 km/h (4 Bft)
03.02.2010 15:10 2,6 C 82 % 1008,9 hPa 0,0 mm 9,7 km/h (2 Bft) W-SW 247 10 min 1 UV-I 199 W/m 22,5 km/h (4 Bft)
03.02.2010 15:20 2,7 C 81 % 1009,0 hPa 0,0 mm 9,7 km/h (2 Bft) W-SW 247 10 min 1 UV-I 195 W/m 22,5 km/h (4 Bft)
03.02.2010 15:30 2,8 C 81 % 1009,0 hPa 0,0 mm 8,0 km/h (2 Bft) W-SW 247 10 min 1 UV-I 183 W/m 20,9 km/h (4 Bft)
03.02.2010 15:40 2,7 C 81 % 1009,2 hPa 0,0 mm 8,0 km/h (2 Bft) W-SW 247 10 min 1 UV-I 165 W/m 20,9 km/h (4 Bft)
03.02.2010 15:50 2,6 C 81 % 1009,4 hPa 0,0 mm 8,0 km/h (2 Bft) W-SW 247 10 min 1 UV-I 109 W/m 24,1 km/h (4 Bft)
03.02.2010 16:00 2,6 C 81 % 1009,5 hPa 0,0 mm 5,5 km/h (1 Bft) W 263 0 min 0 UV-I 52 W/m 11,3 km/h (2 Bft)
03.02.2010 16:10 2,6 C 81 % 1009,6 hPa 0,0 mm 6,4 km/h (2 Bft) W-SW 247 0 min 0 UV-I 63 W/m 19,3 km/h (3 Bft)
03.02.2010 16:20 2,5 C 82 % 1009,7 hPa 0,0 mm 6,4 km/h (2 Bft) SW 225 0 min 0 UV-I 51 W/m 17,7 km/h (3 Bft)
03.02.2010 16:30 2,5 C 82 % 1009,9 hPa 0,0 mm 3,2 km/h (1 Bft) W-SW 247 10 min 0 UV-I 69 W/m 11,3 km/h (2 Bft)
03.02.2010 16:40 2,5 C 82 % 1010,1 hPa 0,0 mm 6,4 km/h (2 Bft) W-SW 247 10 min 0 UV-I 44 W/m 16,1 km/h (3 Bft)
03.02.2010 16:50 2,4 C 82 % 1010,1 hPa 0,0 mm 3,2 km/h (1 Bft) SW 225 0 min 0 UV-I 25 W/m 14,5 km/h (3 Bft)
03.02.2010 17:00 2,3 C 82 % 1010,4 hPa 0,0 mm 3,2 km/h (1 Bft) W-SW 247 10 min 0 UV-I 18 W/m 9,7 km/h (2 Bft)
03.02.2010 17:10 2,2 C 82 % 1010,7 hPa 0,0 mm 3,2 km/h (1 Bft) W-SW 247 0 min 0 UV-I 11 W/m 9,7 km/h (2 Bft)
03.02.2010 17:20 2,1 C 83 % 1010,7 hPa 0,0 mm 3,2 km/h (1 Bft) W-SW 247 0 min 0 UV-I 0 W/m 14,5 km/h (3 Bft)
03.02.2010 17:30 2,0 C 83 % 1010,9 hPa 0,0 mm 1,6 km/h (1 Bft) SW 225 0 min 0 UV-I 0 W/m 6,4 km/h (2 Bft)
03.02.2010 17:40 1,9 C 83 % 1011,0 hPa 0,0 mm 0,0 km/h (0 Bft) W-SW 247 0 min 0 UV-I 0 W/m 4,8 km/h (1 Bft)
03.02.2010 17:50 1,8 C 83 % 1011,2 hPa 0,0 mm 0,5 km/h (0 Bft) W-SW 237 0 min 0 UV-I 0 W/m 4,8 km/h (1 Bft)
03.02.2010 18:00 1,6 C 83 % 1011,3 hPa 0,0 mm 1,0 km/h (0 Bft) SW 234 0 min 0 UV-I 0 W/m 6,4 km/h (2 Bft)
03.02.2010 18:10 1,5 C 84 % 1011,4 hPa 0,0 mm 0,8 km/h (0 Bft) W-SW 256 0 min 0 UV-I 0 W/m 4,8 km/h (1 Bft)
03.02.2010 18:20 1,3 C 84 % 1011,5 hPa 0,0 mm 1,9 km/h (1 Bft) S-SW 203 0 min 0 UV-I 0 W/m 6,4 km/h (2 Bft)
03.02.2010 18:30 1,3 C 84 % 1011,7 hPa 0,0 mm 1,5 km/h (1 Bft) W-SW 253 0 min 0 UV-I 0 W/m 6,4 km/h (2 Bft)
03.02.2010 18:40 1,2 C 85 % 1011,7 hPa 0,0 mm 2,1 km/h (1 Bft) W-SW 253 0 min 0 UV-I 0 W/m 6,4 km/h (2 Bft)
03.02.2010 18:50 1,2 C 85 % 1011,8 hPa 0,0 mm 1,8 km/h (1 Bft) W-SW 254 0 min 0 UV-I 0 W/m 8,0 km/h (2 Bft)
03.02.2010 19:00 1,2 C 85 % 1012,0 hPa 0,0 mm 1,0 km/h (0 Bft) SW 223 0 min 0 UV-I 0 W/m 4,8 km/h (1 Bft)
03.02.2010 19:10 1,1 C 85 % 1012,0 hPa 0,0 mm 1,1 km/h (1 Bft) SW 223 0 min 0 UV-I 0 W/m 9,7 km/h (2 Bft)
03.02.2010 19:20 1,1 C 85 % 1012,1 hPa 0,0 mm 1,6 km/h (1 Bft) SW 225 0 min 0 UV-I 0 W/m 6,4 km/h (2 Bft)
03.02.2010 19:30 1,0 C 85 % 1012,2 hPa 0,0 mm 1,6 km/h (1 Bft) SW 225 0 min 0 UV-I 0 W/m 8,0 km/h (2 Bft)
03.02.2010 19:40 0,9 C 85 % 1012,3 hPa 0,0 mm 1,6 km/h (1 Bft) SW 225 0 min 0 UV-I 0 W/m 4,8 km/h (1 Bft)
03.02.2010 19:50 0,9 C 85 % 1012,4 hPa 0,0 mm 0,0 km/h (0 Bft) SW 225 0 min 0 UV-I 0 W/m 4,8 km/h (1 Bft)
03.02.2010 20:00 0,8 C 85 % 1012,4 hPa 0,0 mm 0,0 km/h (0 Bft) W-SW 247 0 min 0 UV-I 0 W/m 4,8 km/h (1 Bft)
03.02.2010 20:10 0,7 C 85 % 1012,5 hPa 0,0 mm 0,0 km/h (0 Bft) W-SW 247 0 min 0 UV-I 0 W/m 3,2 km/h (1 Bft)
03.02.2010 20:20 0,6 C 85 % 1012,6 hPa 0,0 mm 0,0 km/h (0 Bft) W-SW 247 0 min 0 UV-I 0 W/m 1,6 km/h (1 Bft)
03.02.2010 20:30 0,4 C 85 % 1012,6 hPa 0,0 mm 0,0 km/h (0 Bft) W-SW 247 0 min 0 UV-I 0 W/m 3,2 km/h (1 Bft)
03.02.2010 20:40 0,3 C 84 % 1012,7 hPa 0,0 mm 0,0 km/h (0 Bft) W-SW 247 0 min 0 UV-I 0 W/m 1,6 km/h (1 Bft)
03.02.2010 20:50 0,2 C 84 % 1012,7 hPa 0,0 mm 0,0 km/h (0 Bft) W-SW 247 0 min 0 UV-I 0 W/m 3,2 km/h (1 Bft)
03.02.2010 21:00 0,0 C 84 % 1012,7 hPa 0,0 mm 0,0 km/h (0 Bft) SW 225 0 min 0 UV-I 0 W/m 3,2 km/h (1 Bft)
03.02.2010 21:10 -0,2 C 84 % 1012,7 hPa 0,0 mm 0,0 km/h (0 Bft) SW 225 0 min 0 UV-I 0 W/m 3,2 km/h (1 Bft)
03.02.2010 21:20 -0,3 C 84 % 1012,9 hPa 0,0 mm 0,0 km/h (0 Bft) SW 225 0 min 0 UV-I 0 W/m 1,6 km/h (1 Bft)
03.02.2010 21:30 -0,4 C 84 % 1013,0 hPa 0,0 mm 0,0 km/h (0 Bft) N 0 0 min 0 UV-I 0 W/m 0,0 km/h (0 Bft)
03.02.2010 21:40 -0,6 C 84 % 1013,1 hPa 0,0 mm 0,0 km/h (0 Bft) N 0 0 min 0 UV-I 0 W/m 0,0 km/h (0 Bft)
03.02.2010 21:50 -0,8 C 84 % 1013,1 hPa 0,0 mm 0,0 km/h (0 Bft) N 0 0 min 0 UV-I 0 W/m 0,0 km/h (0 Bft)
03.02.2010 22:00 -0,9 C 85 % 1013,2 hPa 0,0 mm 0,0 km/h (0 Bft) N 0 0 min 0 UV-I 0 W/m 0,0 km/h (0 Bft)
03.02.2010 22:10 -1,1 C 85 % 1013,4 hPa 0,0 mm 0,0 km/h (0 Bft) N 0 0 min 0 UV-I 0 W/m 0,0 km/h (0 Bft)
03.02.2010 22:20 -1,3 C 85 % 1013,4 hPa 0,0 mm 0,0 km/h (0 Bft) N 0 0 min 0 UV-I 0 W/m 0,0 km/h (0 Bft)
03.02.2010 22:30 -1,4 C 85 % 1013,4 hPa 0,0 mm 0,0 km/h (0 Bft) N 0 0 min 0 UV-I 0 W/m 0,0 km/h (0 Bft)
03.02.2010 22:40 -1,6 C 86 % 1013,4 hPa 0,0 mm 0,0 km/h (0 Bft) N 0 0 min 0 UV-I 0 W/m 0,0 km/h (0 Bft)
03.02.2010 22:50 -1,7 C 92 % 1013,4 hPa 0,0 mm 0,0 km/h (0 Bft) N 0 0 min 0 UV-I 0 W/m 0,0 km/h (0 Bft)
03.02.2010 23:00 -1,9 C 86 % 1013,4 hPa 0,0 mm 0,0 km/h (0 Bft) N 0 0 min 0 UV-I 0 W/m 0,0 km/h (0 Bft)
03.02.2010 23:10 -2,0 C 86 % 1013,4 hPa 0,0 mm 0,0 km/h (0 Bft) N 0 0 min 0 UV-I 0 W/m 0,0 km/h (0 Bft)
03.02.2010 23:20 -2,1 C 86 % 1013,4 hPa 0,0 mm 0,0 km/h (0 Bft) N 0 0 min 0 UV-I 0 W/m 0,0 km/h (0 Bft)
03.02.2010 23:30 -2,2 C 86 % 1013,5 hPa 0,0 mm 0,0 km/h (0 Bft) N 0 0 min 0 UV-I 0 W/m 0,0 km/h (0 Bft)
03.02.2010 23:40 -2,3 C 87 % 1013,5 hPa 0,0 mm 0,0 km/h (0 Bft) SW 225 0 min 0 UV-I 0 W/m 1,6 km/h (1 Bft)
03.02.2010 23:50 -2,4 C 87 % 1013,5 hPa 0,0 mm 0,0 km/h (0 Bft) SW 225 0 min 0 UV-I 0 W/m 1,6 km/h (1 Bft)
_ Min-Zeit 23:50 15:00 00:30 - 00:00 - - - - - 21:30
Minimum _ -2,4 C 81 % 997,4 hPa - 0,0 km/h (0 Bft) - - - - - 0,0 km/h (0 Bft)
_ Max-Zeit 15:20 07:50 23:30 01:00 14:30 - - 13:10 13:30 13:40 14:30
Maximum _ 2,8 C 93 % 1013,5 hPa 0,3 mm 11,3 km/h
W-SW (2 Bft)
- - 10 min 1 UV-I 353 W/m 27,4 km/h
SW (4 Bft)
Durchschnitt _ 0,9 C 89 % 1006,6 hPa #3,3 mm 3,2 km/h (1 Bft) W-SW - #2:10 h 1 UV-I 112 W/m 10,7 km/h (2 Bft)